sat.trackr.live / text

‹ back to catalog

SCS-01 J

NORAD 63990 · 2025-100J

PAYLOAD ACTIVE UNKNOWN

§ Identity

Operator
Country
PRC
Launch date
2025-05-14
Launch site
JSC
Launch vehicle
Mass (kg)
RCS (m²)

External: N2YO · Heavens-Above · Gunter

§ Orbital elements

Epoch: 2026-09-21T22:25:02.714016Z

Period
94.44 min
Inclination
97.3549°
Eccentricity
0.0005459
Mean motion
15.24825813 rev/d
Perigee alt
487.6 km
Apogee alt
495.1 km
Semi-major
6,869.4 km
B*
4.0633e-4
RAAN
339.5846°
Arg perigee
331.6335°
Mean anomaly
28.4605°
Rev number
7,559

§ Raw data

SCS-01 J1 63990U 25100J   26264.93405919  .00010024  00000+0  40633-3 0  99902 63990  97.3549 339.5846 0005459 331.6335  28.4605 15.24825813 75591

JSON: /api/v1/satellites/63990 · /tle

For live sub-satellite position, see the globe view (requires WebGL).

§ Visibility from observer

Set your observer location to see the next 7 days of passes ≥ 10°. The values pass through the URL so the page stays shareable.

No JS? Fill the form by hand. The geolocation button needs JavaScript.